Weather History for KLWT - May, 2013

Change the Weather History Date:

Wednesday, May 1, 2013

  Actual Average Record
Temperature  
Mean Temperature 29 °F 46 °F  
Max Temperature 45 °F 58 °F 82 °F (2000)
Min Temperature 13 °F 33 °F 13 °F (2013)
Degree Days  
Heating Degree Days 36 19  
Month to date heating degree days 36 19  
Since 1 July heating degree days 7449 7526  
Cooling Degree Days 0 0  
Month to date cooling degree days 0 0  
Year to date cooling degree days 0 0  
Moisture  
Dew Point 18 °F    
Average Humidity 60    
Maximum Humidity 92    
Minimum Humidity 27    
Precipitation  
Precipitation T in 0.06 in 0.90 in (1902)
Month to date precipitation T 0.06  
Year to date precipitation 3.36 3.47  
Snow  
Snow 0.00 in - - ()
Snow Depth 0.00 in    
Sea Level Pressure  
Sea Level Pressure 30.54 in    
Wind  
Wind Speed 6 mph (SSE)    
Max Wind Speed 20 mph    
Max Gust Speed 26 mph    
Visibility 10 miles    
Events Snow    
T = Trace of Precipitation, MM = Missing Value Source: NWS Daily Summary

Daily Weather History Graph

Daily Weather History Graph

Search for Another Location

Airport or City:

Trip Planner

Search our weather history database for the weather conditions in past years. The results will help you decide how hot, cold, wet, or windy it might be!

Date:

Astronomy

May. 01, 2013 Rise Set
Actual Time 6:01 AM MDT 8:29 PM MDT
Civil Twilight 5:27 AM MDT 9:03 PM MDT
Nautical Twilight 4:45 AM MDT 9:45 PM MDT
Astronomical Twilight 3:56 AM MDT 10:35 PM MDT
Moon 1:41 AM MDT (5/1) 11:44 AM MDT (5/1)
Length of Visible Light 15h 35m
Length of Day
14h 27m
Waning Gibbous, 58% of the Moon is Illuminated
May 1
Waning Gibbous
May 2
Last Quarter
May 9
New
May 17
First Quarter
May 24
Full

Hourly Weather History & Observations

Time (MDT) Temp. Windchill Dew Point Humidity Pressure Visibility Wind Dir Wind Speed Gust Speed Precip Events Conditions
1:54 AM 18.0 °F 6.9 °F 14.0 °F 84% 30.41 in 10.0 mi SW 9.2 mph - N/A   Clear
2:54 AM 18.0 °F 9.8 °F 12.9 °F 81% 30.42 in 10.0 mi SSW 5.8 mph - N/A   Clear
4:54 AM 12.9 °F 5.2 °F 10.0 °F 88% 30.47 in 10.0 mi SE 4.6 mph - N/A   Clear
5:54 AM 14.0 °F 3.9 °F 10.9 °F 88% 30.48 in 10.0 mi SE 6.9 mph - N/A   Clear
8:54 AM 30.0 °F 26.5 °F 17.1 °F 59% 30.53 in 10.0 mi SE 3.5 mph - N/A   Clear
9:54 AM 34.0 °F 31.0 °F 14.0 °F 44% 30.53 in 10.0 mi SSE 3.5 mph - N/A   Clear
10:54 AM 37.9 °F 35.5 °F 15.1 °F 39% 30.53 in 10.0 mi Variable 3.5 mph - N/A   Clear
11:54 AM 39.0 °F - 12.0 °F 33% 30.54 in 10.0 mi Calm Calm - N/A   Scattered Clouds
12:54 PM 42.1 °F 37.1 °F 10.9 °F 28% 30.53 in 10.0 mi West 8.1 mph - N/A   Mostly Cloudy
1:54 PM 44.1 °F 38.6 °F 12.9 °F 28% 30.53 in 10.0 mi West 10.4 mph 17.3 mph N/A   Mostly Cloudy
2:54 PM 42.1 °F 36.1 °F 19.0 °F 40% 30.55 in 10.0 mi SSW 10.4 mph - N/A   Overcast
4:54 PM 42.1 °F - 19.9 °F 41% 30.58 in 10.0 mi Calm Calm - N/A   Mostly Cloudy
5:54 PM 41.0 °F 39.0 °F 16.0 °F 36% 30.58 in 10.0 mi Variable 3.5 mph - N/A   Overcast
6:54 PM 37.0 °F 31.6 °F 24.1 °F 59% 30.60 in 2.5 mi NNW 6.9 mph - 0.00 in Snow Light Snow
7:03 PM 37.4 °F 34.9 °F 24.8 °F 60% 30.48 in 8.0 mi NNE 3.5 mph - 0.00 in Snow Light Snow
7:54 PM 36.0 °F 33.3 °F 24.1 °F 62% 30.60 in 10.0 mi SE 3.5 mph - 0.00 in   Mostly Cloudy
8:54 PM 37.0 °F 31.6 °F 24.1 °F 59% 30.59 in 10.0 mi South 6.9 mph - 0.00 in   Overcast
9:54 PM 36.0 °F 31.1 °F 24.1 °F 62% 30.61 in 10.0 mi SE 5.8 mph - N/A   Overcast
10:54 PM 34.0 °F 27.2 °F 24.1 °F 67% 30.61 in 10.0 mi South 8.1 mph - N/A   Overcast
11:54 PM 30.0 °F 26.5 °F 21.9 °F 72% 30.62 in 10.0 mi ESE 3.5 mph - N/A   Clear